CW4713 Weather Reports


Display with metric or nautical units.
time (UTC)temp
F
wind
direction
speed
MPH
gust
MPH
rain 1hr
in
rain 24hr
in
rain mn
in
humidity
%
barometer
mb
20260905025306 62 11 3.0 5.0 0.00 0.00 0.00 69 1017.1
20260905024804 62 155 0.0 3.0 0.00 0.00 0.00 69 1017.3
20260905024304 62 343 2.0 2.0 0.00 0.00 0.00 69 1017.3
20260905023804 62 25 2.0 3.0 0.00 0.00 0.00 68 1017.2
20260905023304 62 2 2.0 3.0 0.00 0.00 0.00 68 1017.2
20260905022803 62 1 1.0 5.0 0.00 0.00 0.00 68 1017.3
20260905022306 63 17 3.0 5.0 0.00 0.00 0.00 67 1017.4
20260905021803 63 2 2.0 3.0 0.00 0.00 0.00 67 1017.5
20260905021304 63 20 1.0 3.0 0.00 0.00 0.00 67 1017.6
20260905020804 63 7 2.0 3.0 0.00 0.00 0.00 66 1017.6
20260905020304 63 56 0.0 2.0 0.00 0.00 0.00 66 1017.8
20260905015804 63 3 1.0 2.0 0.00 0.00 0.00 66 1017.9
20260905015306 63 337 1.0 2.0 0.00 0.00 0.00 66 1018.0
20260905014804 63 296 0.0 3.0 0.00 0.00 0.00 66 1018.0
20260905014304 63 326 2.0 3.0 0.00 0.00 0.00 66 1017.9
20260905013804 63 3 1.0 5.0 0.00 0.00 0.00 66 1018.0
20260905013304 63 288 1.0 3.0 0.00 0.00 0.00 66 1018.0
20260905012804 63 335 2.0 7.0 0.00 0.00 0.00 65 1018.0
20260905012306 63 6 5.0 8.0 0.00 0.00 0.00 65 1018.0
20260905011804 63 355 2.0 5.0 0.00 0.00 0.00 65 1017.9
20260905011304 63 9 3.0 7.0 0.00 0.00 0.00 65 1018.0
20260905010804 63 8 3.0 5.0 0.00 0.00 0.00 65 1018.0
20260905010304 63 23 3.0 5.0 0.00 0.00 0.00 66 1018.1
20260905005804 63 354 3.0 5.0 0.00 0.00 0.00 66 1018.1
20260905005306 63 3 4.0 7.0 0.00 0.00 0.00 66 1018.1
20260905004804 63 21 3.0 5.0 0.00 0.00 0.00 66 1018.2
20260905004304 63 50 2.0 5.0 0.00 0.00 0.00 66 1018.2
20260905003804 63 8 2.0 5.0 0.00 0.00 0.00 66 1018.2
20260905003304 63 327 2.0 5.0 0.00 0.00 0.00 66 1018.3
20260905002804 63 1 4.0 7.0 0.00 0.00 0.00 66 1018.5
20260905002306 63 330 3.0 5.0 0.00 0.00 0.00 66 1018.6
20260905001806 63 16 3.0 6.0 0.00 0.00 0.00 66 1018.7
20260905001305 63 23 3.0 5.0 0.00 0.00 0.00 66 1018.7
20260905000804 63 30 1.0 7.0 0.00 0.00 0.00 67 1018.8
20260905000304 63 354 5.0 8.0 0.00 0.00 0.00 67 1018.8
20260904235804 63 356 3.0 8.0 0.00 0.00 0.00 67 1018.8
20260904235306 63 11 3.0 5.0 0.00 0.00 0.00 67 1018.8
20260904234804 63 5 3.0 7.0 0.00 0.00 0.00 68 1018.8
20260904234305 63 356 3.0 7.0 0.00 0.00 0.00 68 1018.8
20260904233804 64 0 5.0 7.0 0.00 0.00 0.00 69 1018.8
20260904233304 64 357 4.0 7.0 0.00 0.00 0.00 69 1018.9
20260904232804 64 352 3.0 7.0 0.00 0.00 0.00 68 1018.9
20260904232306 64 0 4.0 7.0 0.00 0.00 0.00 68 1018.8
20260904231804 63 8 5.0 7.0 0.00 0.00 0.00 69 1018.9
20260904231304 63 0 3.0 7.0 0.00 0.00 0.00 70 1019.0
20260904230304 63 326 4.0 6.0 0.00 0.00 0.00 70 1019.0
20260904225804 63 341 5.0 8.0 0.00 0.00 0.00 70 1019.1
20260904225306 63 336 3.0 6.0 0.00 0.00 0.00 70 1019.2
20260904224804 63 348 1.0 5.0 0.00 0.00 0.00 71 1019.1
20260904224304 63 0 2.0 3.0 0.00 0.00 0.00 71 1019.3
20260904223804 63 275 1.0 2.0 0.00 0.00 0.00 72 1019.4
20260904223304 63 264 0.0 3.0 0.00 0.00 0.00 72 1019.5
20260904222805 62 320 1.0 3.0 0.00 0.00 0.00 72 1019.5
20260904222306 62 307 1.0 2.0 0.00 0.00 0.00 72 1019.6
20260904221804 62 315 2.0 5.0 0.00 0.00 0.00 72 1019.6
20260904221304 62 335 3.0 5.0 0.00 0.00 0.00 73 1019.6
20260904220804 62 278 1.0 7.0 0.00 0.00 0.00 73 1019.7
20260904220304 62 345 3.0 6.0 0.00 0.00 0.00 73 1019.7
20260904215804 61 314 1.0 3.0 0.00 0.00 0.00 73 1019.7
20260904215305 61 335 3.0 6.0 0.00 0.00 0.00 74 1019.6
20260904214804 61 309 1.0 2.0 0.00 0.00 0.00 75 1019.7
20260904214304 61 342 1.0 3.0 0.00 0.00 0.00 76 1019.6
20260904213804 60 282 3.0 5.0 0.00 0.00 0.00 76 1019.6
20260904213304 60 223 1.0 2.0 0.00 0.00 0.00 77 1019.7
20260904212804 60 190 2.0 2.0 0.00 0.00 0.00 77 1019.8
20260904212306 60 241 0.0 2.0 0.00 0.00 0.00 77 1019.9
20260904211804 59 216 2.0 3.0 0.00 0.00 0.00 78 1020.0
20260904211305 59 226 2.0 3.0 0.00 0.00 0.00 78 1020.0
20260904210804 59 183 1.0 1.0 0.00 0.00 0.00 78 1020.0
20260904210304 59 220 1.0 3.0 0.00 0.00 0.00 79 1020.0
20260904205306 58 339 0.0 0.0 0.00 0.00 0.00 79 1020.0
20260904204804 58 339 0.0 0.0 0.00 0.00 0.00 80 1019.9
20260904204305 58 339 0.0 1.0 0.00 0.00 0.00 80 1019.9
20260904203805 58 304 1.0 1.0 0.00 0.00 0.00 81 1019.9
20260904203305 58 17 0.0 1.0 0.00 0.00 0.00 81 1020.0
20260904202804 58 48 1.0 2.0 0.00 0.00 0.00 82 1019.8
20260904202306 57 5 2.0 3.0 0.00 0.00 0.00 82 1019.8
20260904201804 57 30 2.0 5.0 0.00 0.00 0.00 82 1019.9
20260904201304 57 19 1.0 3.0 0.00 0.00 0.00 83 1020.0
20260904200804 57 251 0.0 3.0 0.00 0.00 0.00 83 1020.0
20260904200307 57 355 3.0 5.0 0.00 0.00 0.00 83 1019.9
20260904195805 56 34 3.0 6.0 0.00 0.00 0.00 83 1019.9
20260904195306 56 38 2.0 5.0 0.00 0.00 0.00 83 1019.9
20260904184805 55 241 1.0 3.0 0.00 0.00 0.00 85 1020.1
20260904184303 55 197 1.0 3.0 0.00 0.00 0.00 85 1020.1
20260904183804 55 240 3.0 5.0 0.00 0.00 0.00 85 1020.2
20260904183304 54 147 2.0 3.0 0.00 0.00 0.00 86 1020.1
20260904182804 54 200 2.0 3.0 0.00 0.00 0.00 86 1020.1
20260904182306 54 199 1.0 2.0 0.00 0.00 0.00 86 1020.1
20260904181804 54 177 1.0 3.0 0.00 0.00 0.00 86 1020.1
20260904181304 54 354 0.0 1.0 0.00 0.00 0.00 87 1020.0
20260904180804 54 336 2.0 3.0 0.00 0.00 0.00 87 1020.0
20260904180304 54 4 0.0 1.0 0.00 0.00 0.00 87 1020.0
20260904175804 54 37 0.0 1.0 0.00 0.00 0.00 87 1020.0
20260904175306 53 117 1.0 2.0 0.00 0.00 0.00 87 1020.1
20260904174804 53 17 1.0 2.0 0.00 0.00 0.00 87 1020.1
20260904173804 53 9 1.0 3.0 0.00 0.00 0.00 88 1020.2
20260904173304 53 224 1.0 3.0 0.00 0.00 0.00 88 1020.5
20260904172804 53 207 2.0 5.0 0.00 0.00 0.00 88 1020.5
20260904172305 53 56 0.0 2.0 0.00 0.00 0.00 88 1020.4
20260904171804 53 133 2.0 3.0 0.00 0.00 0.00 88 1020.4
20260904171304 52 225 2.0 3.0 0.00 0.00 0.00 88 1020.6
20260904170804 52 192 0.0 3.0 0.00 0.00 0.00 88 1020.5
20260904170304 52 219 0.0 1.0 0.00 0.00 0.00 88 1020.4
20260904165803 52 253 2.0 6.0 0.00 0.00 0.00 88 1020.4
20260904165305 52 232 0.0 2.0 0.00 0.00 0.00 88 1020.3
20260904164804 52 226 2.0 2.0 0.00 0.00 0.00 89 1020.1
20260904164303 52 199 0.0 0.0 0.00 0.00 0.00 89 1020.0
20260904163803 52 199 0.0 0.0 0.00 0.00 0.00 89 1019.9
20260904163304 51 199 0.0 0.0 0.00 0.00 0.00 89 1019.8
20260904162804 51 199 0.0 0.0 0.00 0.00 0.00 89 1019.9
20260904162306 51 199 0.0 0.0 0.00 0.00 0.00 89 1019.9
20260904161804 51 199 0.0 1.0 0.00 0.00 0.00 89 1019.9
20260904161304 51 210 0.0 0.0 0.00 0.00 0.00 89 1020.0
20260904160804 51 210 1.0 2.0 0.00 0.00 0.00 89 1019.9
20260904160304 51 206 1.0 2.0 0.00 0.00 0.00 89 1019.8
20260904155804 51 333 0.0 2.0 0.00 0.00 0.00 89 1019.9
20260904155306 51 108 0.0 2.0 0.00 0.00 0.00 89 1019.9
20260904154804 50 146 1.0 1.0 0.00 0.00 0.00 89 1019.9
20260904154304 50 147 1.0 5.0 0.00 0.00 0.00 89 1019.9
20260904153805 50 4 2.0 3.0 0.00 0.00 0.00 90 1019.8
20260904153304 50 25 0.0 1.0 0.00 0.00 0.00 90 1020.0
20260904152804 50 4 1.0 2.0 0.00 0.00 0.00 90 1020.0
20260904152306 50 355 2.0 5.0 0.00 0.00 0.00 90 1019.9
20260904151804 50 16 4.0 6.0 0.00 0.00 0.00 90 1020.0
20260904151304 50 350 2.0 5.0 0.00 0.00 0.00 90 1020.0
20260904150804 49 289 0.0 2.0 0.00 0.00 0.00 90 1020.0
20260904150304 49 333 1.0 2.0 0.00 0.00 0.00 90 1020.1
20260904145804 49 124 0.0 1.0 0.00 0.00 0.00 90 1020.2
20260904145306 50 140 1.0 3.0 0.00 0.00 0.00 90 1020.2
20260904144804 50 176 1.0 2.0 0.00 0.00 0.00 89 1020.4
20260904144304 49 160 0.0 0.0 0.00 0.00 0.00 89 1020.4
20260904143804 49 160 0.0 0.0 0.00 0.00 0.00 89 1020.4
20260904143304 49 160 0.0 0.0 0.00 0.00 0.00 89 1020.3
20260904142804 49 160 0.0 0.0 0.00 0.00 0.00 89 1020.4
20260904142306 49 160 0.0 0.0 0.00 0.00 0.00 89 1020.3
20260904141804 49 171 1.0 2.0 0.00 0.00 0.00 89 1020.2
20260904141304 49 102 1.0 2.0 0.00 0.00 0.00 89 1020.2
20260904140804 49 121 0.0 0.0 0.00 0.00 0.00 89 1020.2
20260904140304 49 121 1.0 2.0 0.00 0.00 0.00 89 1020.2
20260904135804 49 172 2.0 2.0 0.00 0.00 0.00 89 1020.2
20260904135306 49 208 0.0 0.0 0.00 0.00 0.00 89 1020.2
20260904134804 49 208 0.0 2.0 0.00 0.00 0.00 89 1020.1
20260904134304 49 227 2.0 3.0 0.00 0.00 0.00 89 1020.1
20260904133804 49 42 0.0 0.0 0.00 0.00 0.00 88 1019.9
20260904123305 48 52 0.0 0.0 0.00 0.00 0.00 89 1020.0
20260904112804 49 52 0.0 0.0 0.00 0.00 0.00 87 1020.4
20260904112306 49 52 0.0 0.0 0.00 0.00 0.00 87 1020.4
20260904111804 49 52 0.0 0.0 0.00 0.00 0.00 87 1020.3
20260904111304 49 46 0.0 1.0 0.00 0.00 0.00 87 1020.3
20260904110804 49 34 0.0 0.0 0.00 0.00 0.00 87 1020.2
20260904110304 50 34 0.0 0.0 0.00 0.00 0.00 86 1020.2
20260904105804 49 102 0.0 1.0 0.00 0.00 0.00 86 1020.2
20260904105306 49 120 0.0 0.0 0.00 0.00 0.00 86 1020.3
20260904104804 49 120 0.0 0.0 0.00 0.00 0.00 86 1020.4
20260904104304 50 120 0.0 0.0 0.00 0.00 0.00 86 1020.5
20260904103804 49 120 0.0 0.0 0.00 0.00 0.00 86 1020.5
20260904103304 49 120 0.0 0.0 0.00 0.00 0.00 86 1020.6
20260904102804 50 120 0.0 0.0 0.00 0.00 0.00 86 1020.6
20260904102306 49 120 0.0 1.0 0.00 0.00 0.00 86 1020.6
20260904101804 50 162 0.0 1.0 0.00 0.00 0.00 85 1020.6
20260904101304 50 162 0.0 0.0 0.00 0.00 0.00 85 1020.7
20260904100805 50 162 1.0 2.0 0.00 0.00 0.00 85 1020.6
20260904100304 50 125 1.0 2.0 0.00 0.00 0.00 85 1020.6
20260904095804 50 150 1.0 2.0 0.00 0.00 0.00 85 1020.6
20260904095306 50 181 0.0 0.0 0.00 0.00 0.00 85 1020.4
20260904094804 50 181 0.0 0.0 0.00 0.00 0.00 84 1020.3
20260904094304 50 181 0.0 0.0 0.00 0.00 0.00 84 1020.1
20260904093804 50 181 0.0 0.0 0.00 0.00 0.00 84 1020.1
20260904093305 50 181 0.0 0.0 0.00 0.00 0.00 84 1020.0
20260904092803 50 181 0.0 0.0 0.00 0.00 0.00 83 1019.8
20260904092306 50 181 0.0 0.0 0.00 0.00 0.00 83 1019.9
20260904091804 50 181 0.0 0.0 0.00 0.00 0.00 83 1019.8
20260904081304 50 133 0.0 2.0 0.00 0.00 0.00 84 1019.9
20260904080804 50 138 0.0 0.0 0.00 0.00 0.00 84 1019.9
20260904080305 51 138 0.0 0.0 0.00 0.00 0.00 84 1019.9
20260904075804 51 138 0.0 0.0 0.00 0.00 0.00 84 1019.9
20260904075306 51 138 0.0 0.0 0.00 0.00 0.00 84 1019.8
20260904074805 51 138 0.0 0.0 0.00 0.00 0.00 83 1020.0
20260904074305 51 138 0.0 0.0 0.00 0.00 0.00 83 1020.1
20260904073805 51 138 0.0 2.0 0.00 0.00 0.00 83 1020.1
20260904073304 52 135 1.0 3.0 0.00 0.00 0.00 83 1020.1
20260904072804 52 192 0.0 1.0 0.00 0.00 0.00 82 1020.3
20260904072306 52 192 0.0 0.0 0.00 0.00 0.00 82 1020.3
20260904071804 52 192 0.0 0.0 0.00 0.00 0.00 82 1020.3
20260904071304 52 192 0.0 0.0 0.00 0.00 0.00 82 1020.3
20260904070804 52 192 0.0 0.0 0.00 0.00 0.00 82 1020.2
20260904070303 52 192 0.0 1.0 0.00 0.00 0.00 81 1020.3
20260904065804 52 177 1.0 1.0 0.00 0.00 0.00 81 1020.1
20260904065306 52 14 0.0 0.0 0.00 0.00 0.00 81 1020.0
20260904064804 53 14 0.0 0.0 0.00 0.00 0.00 80 1020.0
20260904064304 53 14 0.0 0.0 0.00 0.00 0.00 80 1020.1
20260904063804 53 14 0.0 0.0 0.00 0.00 0.00 79 1020.2
20260904063304 53 14 1.0 2.0 0.00 0.00 0.00 79 1020.2
20260904062803 54 14 0.0 0.0 0.00 0.00 0.00 79 1020.1
20260904062306 54 14 0.0 0.0 0.00 0.00 0.00 78 1020.1
20260904061804 54 14 0.0 0.0 0.00 0.00 0.00 78 1020.1
20260904061304 54 14 0.0 0.0 0.00 0.00 0.00 77 1020.0
20260904060804 54 14 0.0 0.0 0.00 0.00 0.00 76 1020.1
20260904060304 55 14 0.0 0.0 0.00 0.00 0.00 76 1020.0
20260904050304 58 69 0.0 0.0 0.00 0.00 0.00 69 1019.7
20260904035804 60 118 0.0 5.0 0.00 0.00 0.00 61 1019.6